Location: Cranbrook Institute of Science
(42.5830°N, 83.2450°W)
Time: 23:35:25
(UTC-04:00)

Daily predictions for brighter satellites

Satellite Brightness Start Highest point End
(mag) Time Altitude Azimuth Time Altitude Azimuth Time Altitude Azimuth
Cosmos 1607 4.0 19:42:27 10° SSW 19:48:38 90° W 19:54:50 10° NNE
Cosmos 1707 2.7 19:46:01 10° N 19:49:54 76° E 19:53:44 10° SSE
SJ-6B 2.9 19:48:20 10° SSE 19:52:12 56° ENE 19:56:11 10° N
Cosmos 1452 Rocket 4.5 19:51:20 10° N 19:55:50 28° ENE 20:00:18 10° ESE
ATLAS 3B R/B 3.8 19:48:28 10° SW 19:55:53 53° NW 20:03:06 10° NNE
Cosmos-2242 4.5 19:53:11 10° SE 19:56:00 17° E 19:58:50 10° NE
SKYMED 2 3.9 19:51:56 10° N 19:56:17 74° WNW 20:00:36 10° SSW
Cosmos 2369 Rocket 4.1 19:56:29 10° NNE 19:58:27 12° NE 20:00:24 10° ENE
Helios 1B rocket 3.2 19:56:23 10° NE 20:00:03 30° E 20:03:41 10° SSE
SeaSat 1 4.0 20:00:37 10° ENE 20:03:22 15° ESE 20:06:05 10° SE
Cosmos 1408 Rocket 4.3 20:00:30 10° NNE 20:04:27 32° ENE 20:08:20 10° SE
Resurs 01 Rocket 1.8 20:05:17 10° SSE 20:09:35 50° ENE 20:13:54 10° N
Okean 3 Rocket 3.6 20:06:27 10° N 20:11:01 86° E 20:15:33 10° S
NOSS 3-2 (A) 3.6 20:05:18 10° SSW 20:11:08 53° ESE 20:17:29 10° NE
SAR-Lupe-4 4.0 20:07:55 10° S 20:11:28 64° WSW 20:15:01 10° NNW
Cosmos 2333 Rocket 3.1 20:06:21 10° SW 20:11:59 54° WNW 20:17:40 10° NNE
Cosmos 292 Rocket 4.2 20:07:27 10° SSW 20:12:13 70° WNW 20:17:03 10° NNE
Resurs 1-3 4.0 20:09:31 10° SE 20:13:40 42° ENE 20:17:49 10° N
USA 238 DEB 4.1 20:09:05 10° SW 20:16:06 69° NW 20:23:09 10° NNE
USA 238 4.1 20:09:09 10° SW 20:16:12 70° NW 20:23:15 10° NNE
CZ-4B DEB 4.0 20:15:36 13° ESE 20:17:46 25° ENE 20:20:30 10° NNE
Spot 1 4.2 20:15:01 10° SSE 20:19:49 79° ENE 20:24:22 10° N
Atlas Centaur 2 4.2 20:14:54 10° WSW 20:22:08 31° SSW 20:28:49 10° SE
ATLAS CENTAUR R/B 2.0 20:19:15 10° NW 20:23:24 54° WSW 20:27:11 10° SSE
Cosmos 1072 Rocket 4.4 20:23:00 10° S 20:29:05 80° E 20:35:13 10° N
Cosmos 1743 Rocket 4.4 20:27:14 10° NNE 20:31:11 30° ENE 20:33:29 19° ESE
ALOS 2.5 20:26:56 10° SE 20:31:24 47° ENE 20:35:52 10° N
In-Cosmos 22 4.3 20:25:59 10° N 20:31:44 63° ENE 20:37:26 10° SSE
Cosmos 1674 4.1 20:29:17 10° NNE 20:32:12 20° ENE 20:32:23 20° ENE
Nadezhda 4 Rocket 4.4 20:26:21 10° N 20:32:18 42° ENE 20:38:09 10° SE
Cosmos 1766 3.7 20:34:42 10° SSW 20:38:37 66° W 20:42:36 10° N
FREGAT/IRIS 4.2 20:36:15 10° S 20:39:10 38° W 20:42:06 10° NNW
Spot 2 Rocket 3.6 20:34:17 10° SSE 20:39:19 80° WSW 20:44:23 10° NNW
GP-B 4.4 20:36:07 10° NNE 20:39:10 21° ENE 20:39:10 21° ENE
Cosmos 2237 Rocket 3.7 20:35:14 10° SW 20:40:31 38° WNW 20:45:49 10° N
Cosmos 2056 Rocket 4.3 20:36:03 10° NNW 20:41:21 55° WSW 20:46:36 10° S
NOSS 3-3 (A) 4.4 20:33:58 10° NW 20:41:27 83° NE 20:48:48 13° SE
NOSS 3-3 (C) 4.4 20:34:05 10° NW 20:41:33 82° NE 20:48:52 13° SE
OAO 3 Rocket 4.2 20:39:56 10° SW 20:44:08 31° S 20:46:04 23° SE
Cosmos 1513 Rocket 4.5 20:38:39 10° S 20:45:01 80° E 20:51:28 10° N
Helios 1A 3.2 20:43:15 10° S 20:47:24 70° WSW 20:51:36 10° NNW
NOSS 3-2 (C) 3.4 20:42:00 10° SSW 20:48:02 76° ESE 20:54:40 10° NE
CZ-4C R/B 3.6 20:44:30 10° WSW 20:49:33 38° NW 20:55:15 10° NNE
Envisat 4.3 20:50:02 22° ENE 20:50:23 22° ENE 20:54:12 10° NNE
ASTEX 1 3.5 20:46:57 10° NNE 20:51:46 51° E 20:56:31 10° SSE
CENTAUR R/B 4.0 20:47:20 10° SSE 20:48:51 16° SE 20:48:51 16° SE
ATLAS 5 CENTAUR R/B 1.8 20:47:30 10° SSW 20:52:12 64° ESE 20:57:20 10° NE
CZ-2D R/B 3.2 20:52:08 25° SSE 20:54:15 63° ENE 20:58:07 10° N
Cosmos 1953 2.2 20:51:03 10° S 20:55:02 85° ESE 20:59:03 10° N
SL-16 R/B 2.8 20:53:20 10° SW 20:58:57 60° WNW 21:04:36 10° NNE
Meteor 2-12 Rocket 4.3 20:52:57 10° S 20:59:04 79° E 21:05:15 10° N
Aureole 2 Rocket 4.2 20:56:45 10° SW 21:00:57 43° WNW 21:05:04 10° N
Cosmos 2034 Rocket 4.1 20:57:08 10° S 21:03:22 83° W 21:09:45 10° N
USA 186 4.1 21:06:04 10° N 21:06:04 10° N 21:06:05 10° N
Cosmos 1766 Rocket 4.2 21:02:18 10° NNW 21:06:36 55° W 21:10:50 10° S
Cosmos 1805 3.8 21:08:14 10° SSW 21:12:06 60° W 21:16:01 10° N
H-2A R/B 4.2 21:14:40 15° NE 21:14:40 15° NE 21:15:55 10° NNE
H-2A R/B 2.9 21:12:11 31° S 21:14:00 76° WSW 21:17:55 10° NNW
Cosmos 724 4.2 21:08:48 10° SSW 21:14:42 75° ESE 21:20:47 10° NE
USA 215 3.7 21:15:58 10° NE 21:22:23 60° NNW 21:28:46 10° WSW
Cosmos 1544 3.8 21:24:04 10° SSW 21:27:43 55° W 21:31:26 10° N
FENGYUN 3A 4.4 21:26:21 10° S 21:31:32 50° W 21:36:47 10° NNW
Cosmos 1470 4.2 21:34:27 29° N 21:34:27 29° N 21:36:27 10° N
Cosmos-2242 4.3 21:29:05 10° SSW 21:33:12 41° WNW 21:37:23 10° N
ERS-1 Rocket 3.0 21:34:40 59° ENE 21:34:40 59° ENE 21:39:24 10° N
Cosmos 1627 Rocket 4.4 21:30:05 10° N 21:36:12 61° E 21:36:58 56° ESE
Cosmos 1842 Rocket 3.6 21:39:26 75° W 21:39:29 75° W 21:43:51 10° N
SeaSat 1 2.5 21:36:24 10° NNE 21:41:20 75° WNW 21:46:16 10° SW
Cosmos 1500 Rocket 3.8 21:37:00 10° NNW 21:41:24 68° W 21:41:43 65° SW
Cosmos 2369 Rocket 2.2 21:38:04 10° NNW 21:43:36 61° ENE 21:43:36 61° ENE
Cosmos 1603 4.1 21:40:17 10° SW 21:45:58 65° WNW 21:51:44 10° NNE
Resurs 01 Rocket 4.5 21:43:37 10° SW 21:46:20 16° W 21:49:04 10° NW
Cosmos 839 Rocket 4.2 21:40:29 10° NNW 21:48:20 68° NE 21:49:20 60° E
Cosmos 2151 4.3 21:49:01 10° N 21:51:23 33° N 21:51:23 33° N
Cosmos 1943 Rocket 3.3 21:50:01 10° N 21:53:53 31° NNE 21:53:53 31° NNE
Meteor 1-11 4.4 21:57:46 10° N 22:02:52 67° NNE 22:02:52 67° NNE
Exosat Rocket 4.4 21:58:32 10° NNW 22:05:05 78° ENE 22:06:19 65° SE
Cosmos 1655 Rocket 3.9 22:06:44 10° N 22:12:38 80° NNW 22:12:38 80° NNW
Cosmos 2279 Rocket 4.5 22:20:11 51° NNE 22:20:11 51° NNE 22:24:42 10° N
H-2A R/B 4.4 22:24:25 13° NNE 22:24:25 13° NNE 22:25:09 10° N
Envisat 4.1 22:30:15 41° WNW 22:30:15 41° WNW 22:34:00 10° NNW
ATLAS 5 CENTAUR R/B 4.1 22:33:26 10° W 22:37:23 23° NW 22:41:38 10° NNE
